Location: Dal�� Lhota
(48.7500°N, 14.0167°E)
Time: 03:02:51
(UTC+00:00)

Transit 2A - Pass Details

Date: 31 July 2021
Orbit: 594 x 964 km, 66.7° (Epoch: 27 September)

Event Time Altitude Azimuth Distance (km) Brightness Sun altitude
Rises 12:45:46 0° 327° (NNW) 3,158 9.1 53.8°
Reaches altitude 10° 12:48:13 10° 336° (NNW) 2,293 8.4 53.5°
Maximum altitude 12:53:06 36° 43° (NE) 1,261 7.2 53.0°
Drops below altitude 10° 12:58:26 10° 110° (ESE) 2,514 8.6 52.4°
Sets 13:01:14 0° 118° (ESE) 3,504 9.3 52.1°
